Weather in Vakhrushev

Russia / Sakhalin District     48°59′39″N   142°51′29″E
temp.,
°C
wind,
m/s
gust,
m/s
humid.,
%
clouds,
%
prec.,
mm/h
press.,
hPa
HPBL,
m
18 january, mon
mon1823:00−24wnw128223 0.0 101720
02:00−24w117839 0.0 101621
05:00−24w118069 0.0 101622
08:00−24nw118188 0.0 101522
11:00−21sse008190 0.0 1015101
14:00−18se1180100 0.0 1014416
17:00−19ese1190100 0.0 1013200
20:00−21wnw0198100 0.0 101422
19 january, tue
tue1923:00−24nnw129476 0.0 101322
02:00−26nnw11891 0.0 101322
05:00−26w118712 0.0 101221
08:00−25wnw1274100 0.0 101321
11:00−22wsw117766 0.0 101385
14:00−18wnw376819 0.0 1013889
17:00−20wnw497910 0.0 1013902
20:00−24wnw269161 0.0 1015162
20 january, wed
wed2023:00−23w3109174 0.0 1015301
02:00−24w279283 0.0 1015194
05:00−25w229475 0.0 101654
08:00−26w229439 0.0 101751
11:00−23w358931 0.0 1018246
14:00−18wnw412660 0.0 1018792
17:00−19w311730 0.0 1019703
20:00−24w32920 0.0 102144
21 january, thu
thu2123:00−24w32890 0.0 102241
02:00−24w22840 0.0 102129
05:00−22w227417 0.0 102021
08:00−20s118099 0.0 101923
11:00−16se118699 0.0 1018117
14:00−14se1291100 0.3 1016254
17:00−14sse1391100 0.4 1016411
20:00−17w129388 0.0 101721
22 january, fri
fri2223:00−19w229347 0.0 101820
02:00−20wnw12901 0.0 101720
05:00−20se019050 0.0 101622
08:00−20e0198100 0.0 101522
11:00−18ne1293100 0.1 1015173
14:00−17ene1189100 0.3 1013278
17:00−17ne1292100 0.4 1012221
20:00−20nw1199100 0.1 101430